PA3DZX-13 Weather Reports


time (UTC)temp
F
wind
direction
speed
knots
gust
knots
rain 1hr
in
rain 24hr
in
rain mn
in
humidity
%
barometer
mb
20260901135248 71 281 9.6 14.8 0.00 0.00 0.00 50 1019.2
20260901133748 69 293 9.6 14.8 0.00 0.00 0.00 49 1019.1
20260901132247 68 279 9.6 19.1 0.00 0.00 0.00 53 1019.0
20260901130747 68 295 11.3 19.1 0.00 0.00 0.00 54 1019.1
20260901125246 68 275 9.6 14.8 0.00 0.00 0.00 54 1019.1
20260901123747 68 289 9.6 14.8 0.00 0.00 0.00 54 1019.1
20260901122245 69 286 7.0 14.8 0.00 0.00 0.00 55 1018.9
20260901120745 68 268 9.6 17.4 0.00 0.00 0.00 60 1018.9
20260901115244 69 278 9.6 14.8 0.00 0.00 0.00 58 1018.8
20260901113745 68 267 5.2 13.0 0.00 0.00 0.00 67 1018.8
20260901112244 66 237 7.0 14.8 0.00 0.00 0.00 72 1018.8
20260901110743 66 225 5.2 7.0 0.00 0.00 0.00 79 1018.9
20260901105243 64 241 7.0 11.3 0.00 0.00 0.00 82 1019.0
20260901103742 64 228 7.0 11.3 0.00 0.00 0.00 83 1019.0
20260901102242 64 206 5.2 11.3 0.00 0.00 0.00 86 1019.0
20260901100742 62 208 5.2 9.6 0.00 0.00 0.00 87 1019.0
20260901095241 62 212 7.0 9.6 0.00 0.00 0.00 86 1019.0
20260901093741 64 229 5.2 9.6 0.00 0.00 0.00 86 1018.9
20260901092240 62 227 5.2 9.6 0.00 0.00 0.00 87 1018.9
20260901090740 62 224 5.2 9.6 0.00 0.00 0.00 87 1018.7
20260901085239 62 219 5.2 9.6 0.00 0.00 0.00 88 1018.6
20260901083739 62 224 5.2 11.3 0.00 0.00 0.00 87 1018.5
20260901082238 62 224 5.2 11.3 0.00 0.00 0.00 87 1018.5
20260901080738 62 221 5.2 9.6 0.00 0.00 0.00 87 1018.3
20260901075238 62 226 5.2 9.6 0.00 0.00 0.00 86 1018.1
20260901073738 62 218 5.2 9.6 0.00 0.00 0.00 86 1018.0
20260901072237 60 223 5.2 9.6 0.00 0.00 0.00 88 1017.9
20260901070737 60 224 5.2 9.6 0.00 0.00 0.00 89 1017.9
20260901065236 59 216 3.5 7.0 0.00 0.00 0.00 91 1017.7
20260901063737 59 222 3.5 7.0 0.00 0.00 0.00 91 1017.7
20260901062236 59 214 5.2 7.0 0.00 0.00 0.00 93 1017.5
20260901060736 57 212 3.5 7.0 0.00 0.00 0.00 93 1017.5
20260901055235 57 214 3.5 7.0 0.00 0.00 0.00 93 1017.5
20260901053735 57 226 3.5 5.2 0.00 0.00 0.00 94 1017.1
20260901052234 57 226 3.5 5.2 0.00 0.00 0.00 94 1017.1
20260901050734 57 221 3.5 7.0 0.00 0.00 0.00 94 1017.0
20260901045234 57 226 3.5 5.2 0.00 0.00 0.00 94 1016.8
20260901043734 57 227 3.5 7.0 0.00 0.00 0.00 94 1016.8
20260901042233 57 227 3.5 7.0 0.00 0.00 0.00 94 1016.6
20260901040733 57 228 5.2 7.0 0.00 0.00 0.00 93 1016.7
20260901035230 57 225 5.2 7.0 0.00 0.00 0.00 93 1016.6
20260901033730 57 214 3.5 7.0 0.00 0.00 0.00 92 1016.4
20260901032229 57 217 3.5 7.0 0.00 0.00 0.00 92 1016.3
20260901030729 59 221 3.5 7.0 0.00 0.00 0.00 91 1016.3
20260901025228 57 226 3.5 7.0 0.00 0.00 0.00 91 1016.3
20260901023729 57 226 3.5 7.0 0.00 0.00 0.00 91 1016.3
20260901022228 59 220 5.2 9.6 0.00 0.00 0.00 90 1016.3
20260901020728 59 228 5.2 9.6 0.00 0.00 0.00 89 1016.2
20260901015226 59 220 5.2 9.6 0.00 0.00 0.00 89 1016.1
20260901013726 59 221 5.2 9.6 0.00 0.00 0.00 89 1016.2
20260901012224 59 225 5.2 9.6 0.00 0.00 0.00 89 1016.0
20260901010724 59 220 5.2 7.0 0.00 0.00 0.00 88 1015.9
20260901005224 59 218 5.2 9.6 0.00 0.00 0.00 88 1015.9
20260901003725 59 220 5.2 7.0 0.00 0.00 0.00 88 1015.8
20260901002223 59 221 5.2 7.0 0.00 0.00 0.00 89 1015.8
20260901000723 57 219 5.2 7.0 0.00 0.00 0.00 89 1015.8
20260831235224 57 213 3.5 7.0 0.00 0.00 0.00 89 1015.8
20260831233723 57 218 5.2 7.0 0.00 0.00 0.00 88 1015.7
20260831232222 57 219 3.5 7.0 0.00 0.00 0.00 87 1015.6
20260831230722 57 217 5.2 7.0 0.00 0.00 0.00 87 1015.5
20260831225222 59 227 5.2 7.0 0.00 0.00 0.00 86 1015.6
20260831223723 59 231 5.2 9.6 0.00 0.00 0.00 85 1015.5
20260831222221 59 232 5.2 9.6 0.00 0.00 0.00 84 1015.5
20260831220721 59 235 5.2 9.6 0.00 0.00 0.00 84 1015.4
20260831215221 59 232 5.2 7.0 0.00 0.00 0.00 85 1015.2
20260831213721 59 227 5.2 7.0 0.00 0.00 0.00 84 1015.2
20260831212221 59 217 3.5 7.0 0.00 0.00 0.00 86 1014.9
20260831210721 59 217 3.5 7.0 0.00 0.00 0.00 86 1014.8
20260831205220 59 231 3.5 5.2 0.00 0.00 0.00 88 1014.6
20260831203720 59 239 3.5 7.0 0.00 0.00 0.00 87 1014.5
20260831202220 60 246 5.2 9.6 0.00 0.00 0.00 86 1014.3
20260831200720 60 247 7.0 9.6 0.00 0.00 0.00 85 1014.1
20260831195219 60 248 5.2 11.3 0.00 0.00 0.00 86 1013.9
20260831193720 60 262 7.0 11.3 0.00 0.00 0.00 84 1013.8
20260831192219 60 247 5.2 9.6 0.00 0.00 0.00 85 1013.7
20260831190719 62 248 9.6 14.8 0.01 0.00 0.00 75 1013.2
20260831185218 64 251 9.6 14.8 0.00 0.00 0.00 67 1012.7
20260831183718 64 252 9.6 14.8 0.00 0.00 0.00 68 1012.6
20260831182217 62 248 7.0 14.8 0.00 0.00 0.00 70 1012.2
20260831180717 64 251 9.6 14.8 0.00 0.00 0.00 68 1012.0
20260831175216 64 251 9.6 14.8 0.00 0.00 0.00 68 1012.0
20260831173716 64 249 9.6 14.8 0.00 0.00 0.00 65 1011.8
20260831172215 64 246 9.6 14.8 0.00 0.00 0.00 67 1011.7
20260831170716 64 254 9.6 17.4 0.00 0.00 0.00 66 1011.4
20260831165214 64 262 7.0 13.0 0.00 0.00 0.00 68 1011.3
20260831163714 64 261 9.6 13.0 0.00 0.00 0.00 71 1011.1
20260831162214 64 250 7.0 19.1 0.00 0.00 0.00 74 1011.0
20260831160714 64 235 11.3 19.1 0.00 0.00 0.00 71 1010.7
20260831155213 66 227 11.3 17.4 0.00 0.00 0.00 69 1010.6
20260831153713 66 231 11.3 17.4 0.00 0.00 0.00 71 1010.4
20260831152212 64 224 9.6 17.4 0.00 0.00 0.00 71 1010.5
20260831150712 64 228 9.6 13.0 0.00 0.00 0.00 73 1010.3
20260831145211 60 220 7.0 11.3 0.00 0.00 0.00 84 1010.1
20260831143711 59 218 7.0 14.8 0.00 0.00 0.00 86 1010.1
20260831142210 59 274 11.3 17.4 0.11 0.00 0.00 84 1010.2
20260831140711 62 280 9.6 19.1 0.00 0.00 0.00 72 1010.3